AirNav   Everest Fuels
 
 1425 users online  

9MO1 Missouri Baptist Hospital Heliport
St Louis, Missouri, USA

GOING TO ST LOUIS?


FAA INFORMATION EFFECTIVE 16 JUNE 2022

Location

FAA Identifier: 9MO1
Lat/Long: 38-38-08.1800N 090-26-43.3800W
38-38.136333N 090-26.723000W
38.6356056,-90.4453833
(estimated)
Elevation: 713 ft. / 217 m (estimated)
Variation: 02E (1985)
Time zone: UTC -5 (UTC -6 during Standard Time)
Zip code: 63131

Heliport Operations

Heliport use: Private use, MEDICAL.
Activation date: 06/1974
Control tower: no
ARTCC: KANSAS CITY CENTER
FSS: SAINT LOUIS FLIGHT SERVICE STATION
Attendance: CONTINUOUS
Wind indicator: yes
Segmented circle: no

Heliport Communications

WX ASOS at STL (8 nm NE): PHONE 314-890-4790
WX ASOS at SUS (10 nm W): 134.8 (314-890-7255)
WX ASOS at CPS (14 nm E): PHONE 618-332-0001
WX ASOS at SET (18 nm N): 118.075 (636-250-4590)

Heliport Services

Runway Information

Helipad H1

Dimensions: 45 x 44 ft. / 14 x 13 m
Surface: mats
Latitude: 38-38.136333N
Longitude: 090-26.723000W
Elevation: 713.0 ft.
Traffic pattern: leftleft

Heliport Ownership and Management from official FAA records

Ownership: Privately-owned
Owner: MISSOURI BAPTIST HOSPITAL
3015 N BALLAS RD
ST LOUIS, MO 63131
Phone 314-996-5253
Manager: KEITH STUMPF
3015 N BALLAS RD
ST LOUIS, MO 63131
Phone 314-996-5253

Additional Remarks

INGRESS/EGRESS LIMITED FROM H1 FROM 355 DEG CLOCKWISE TO 175 DEG, RELATIVE TO TRUE NORTH.
FOR CD CTC ST LOUIS APCH AT 314-890-1018.

Instrument Procedures

There are no published instrument procedures at 9MO1.

Some nearby airports with instrument procedures:

1H0 - Creve Coeur Airport (6 nm NW)
KSTL - St Louis Lambert International Airport (8 nm NE)
KSUS - Spirit of St Louis Airport (10 nm W)
KCPS - St Louis Downtown Airport (14 nm E)
KSET - St Charles County Smartt Airport (18 nm N)
 
Loc | Ops | Rwys | IFR | FBO | Links
Com | Nav | Svcs | Stats | Notes
Area around 9MO1 (Missouri Baptist Hospital Heliport)
 
Road maps at: MapQuest Bing Google
 
Aerial photo
No photo
 
Sectional chart

 
Airport distance calculator
Flying to Missouri Baptist Hospital Heliport? Find the distance to fly.

From to 9MO1

Sunrise and sunset
Times for 01-Jul-2022
 Local
(UTC-5)
 Zulu
(UTC)
Morning civil twilight05:1010:10
Sunrise05:4210:42
Sunset20:2901:29
Evening civil twilight21:0102:01

Current date and time
Zulu (UTC)  01-Jul-2022 18:39:00
Local (UTC-5)  01-Jul-2022 13:39:00
 
METAR
KSTL 
8nm NE 
011751Z VRB04KT 10SM FEW047 SCT130 BKN250 34/21 A2999 RMK AO2 SLP141 T03440206 10344 20267 58009
KSUS 
10nm W 
011754Z 00000KT 10SM CLR 33/21 A2997 RMK AO2 SLP138 T03330206 10339 20222 58010
KCPS 
14nm E 
011753Z VRB04KT 10SM BKN055 34/21 A2998 RMK AO2 SLP146 T03390206 10344 20250 58012
KSET 
18nm N 
011754Z AUTO 22006KT 10SM FEW050 33/19 A2997 RMK AO2 SLP142 T03330194 10339 20244 58010
TAF
KSTL 
8nm NE 
011728Z 0118/0224 25010KT P6SM SCT060 FM020000 35007KT P6SM VCTS BKN060CB FM020200 04005KT P6SM BKN100 FM021500 07006KT P6SM BKN100
KSUS 
10nm W 
011728Z 0118/0218 25006KT P6SM SCT060 FM020000 35005KT P6SM VCTS BKN060CB FM020200 02005KT P6SM BKN100 FM021500 07005KT P6SM BKN100
KCPS 
14nm E 
011728Z 0118/0218 24006KT P6SM SCT060 FM020000 35005KT P6SM VCTS BKN060CB FM020200 02005KT P6SM BKN100 FM021500 06005KT P6SM BKN100
NOTAMs
Click for the latest NOTAMs
NOTAMs are issued by the DoD/FAA and will open in a separate window not controlled by AirNav.

 

 
 

Would you like to see your business listed on this page?

 If your business provides an interesting product or service to pilots, flight crews, aircraft, or users of the Missouri Baptist Hospital Heliport, you should consider listing it here.  To start the listing process, click on the button below
 
Add a business
 

Other Pages about Missouri Baptist Hospital Heliport

Update a link
 
Copyright © AirNav, LLC. All rights reserved. Privacy Policy  Contact